TimeEDT,TemperatureF,Dew PointF,Humidity,Sea Level PressureIn,VisibilityMPH,Wind Direction,Wind SpeedMPH,Gust SpeedMPH,PrecipitationIn,Events,Conditions,WindDirDegrees,DateUTC
12:54 AM,69.8,68.0,94,29.96,10.0,South,8.1,-,N/A,,Clear,180,2013-05-20 04:54:00
12:56 AM,69.8,66.2,88,29.98,10.0,SSE,6.9,-,N/A,,Clear,160,2013-05-20 04:56:00
1:54 AM,69.8,66.2,88,29.96,10.0,SSE,6.9,-,N/A,,Clear,160,2013-05-20 05:54:00
1:56 AM,68.0,64.4,88,29.99,10.0,South,6.9,-,N/A,,Clear,170,2013-05-20 05:56:00
2:54 AM,68.0,64.4,88,29.96,10.0,South,6.9,-,N/A,,Clear,170,2013-05-20 06:54:00
2:57 AM,68.0,64.4,88,29.99,10.0,South,8.1,-,N/A,,Clear,170,2013-05-20 06:57:00
3:54 AM,68.0,64.4,88,29.98,10.0,South,8.1,-,N/A,,Clear,170,2013-05-20 07:54:00
3:57 AM,66.2,62.6,88,29.98,10.0,South,8.1,-,N/A,,Clear,180,2013-05-20 07:57:00
4:54 AM,66.2,62.6,88,29.96,10.0,South,8.1,-,N/A,,Clear,180,2013-05-20 08:54:00
4:57 AM,64.4,62.6,94,29.98,10.0,South,8.1,-,N/A,,Clear,180,2013-05-20 08:57:00
5:54 AM,64.4,62.6,94,29.97,10.0,SSW,8.1,-,N/A,,Clear,200,2013-05-20 09:54:00
6:54 AM,64.4,60.8,88,30.00,10.0,South,6.9,-,N/A,,Clear,180,2013-05-20 10:54:00
7:54 AM,68.0,62.6,83,30.03,10.0,South,9.2,-,N/A,,Clear,190,2013-05-20 11:54:00
8:54 AM,71.6,62.6,73,30.02,10.0,SW,9.2,-,N/A,,Clear,220,2013-05-20 12:54:00
9:54 AM,-9999,-9999,N/A,30.05,-9999.0,North,-9999.0,-,N/A,,Unknown,0,2013-05-20 13:54:00
10:32 AM,75.2,66.2,73,30.07,10.0,WSW,13.8,-,N/A,,Overcast,240,2013-05-20 14:32:00
10:54 AM,75.2,66.2,73,30.06,10.0,South,9.2,-,N/A,,Mostly Cloudy,190,2013-05-20 14:54:00
11:54 AM,77.0,68.0,74,30.04,9.0,WSW,11.5,-,N/A,,Mostly Cloudy,240,2013-05-20 15:54:00
12:47 PM,78.8,69.8,74,30.05,-9999.0,SW,8.1,-,N/A,,Unknown,220,2013-05-20 16:47:00
12:54 PM,79.0,69.1,72,30.02,10.0,SSW,11.5,-,N/A,,Mostly Cloudy,200,2013-05-20 16:54:00
1:17 PM,80.6,69.8,70,30.04,10.0,SSW,11.5,-,N/A,,Mostly Cloudy,200,2013-05-20 17:17:00
1:44 PM,80.6,69.8,70,30.04,10.0,SSW,6.9,-,N/A,,Scattered Clouds,200,2013-05-20 17:44:00
1:54 PM,80.6,69.8,70,30.04,10.0,South,8.1,-,N/A,,Mostly Cloudy,190,2013-05-20 17:54:00
2:54 PM,82.9,70.0,65,29.99,10.0,South,11.5,-,N/A,,Mostly Cloudy,190,2013-05-20 18:54:00
3:54 PM,84.0,70.0,63,29.97,10.0,South,10.4,-,N/A,,Partly Cloudy,190,2013-05-20 19:54:00
4:54 PM,82.0,69.1,65,29.96,10.0,South,8.1,-,N/A,,Mostly Cloudy,170,2013-05-20 20:54:00
5:54 PM,82.9,69.1,63,29.94,10.0,South,8.1,-,N/A,,Partly Cloudy,170,2013-05-20 21:54:00
6:54 PM,82.0,69.1,65,29.94,10.0,South,8.1,-,N/A,,Partly Cloudy,180,2013-05-20 22:54:00
7:54 PM,80.1,68.0,67,29.96,10.0,South,5.8,-,N/A,,Clear,180,2013-05-20 23:54:00
8:54 PM,77.0,66.9,71,29.96,10.0,South,5.8,-,N/A,,Clear,170,2013-05-21 00:54:00
9:54 PM,75.2,66.2,73,29.95,10.0,SSE,5.8,-,N/A,,Clear,160,2013-05-21 01:54:00
10:54 PM,73.9,66.0,76,29.94,10.0,SSE,5.8,-,N/A,,Scattered Clouds,150,2013-05-21 02:54:00
11:54 PM,73.0,66.9,81,29.94,10.0,SSW,4.6,-,N/A,,Scattered Clouds,200,2013-05-21 03:54:00